TimeEDT,TemperatureF,Dew PointF,Humidity,Sea Level PressureIn,VisibilityMPH,Wind Direction,Wind SpeedMPH,Gust SpeedMPH,PrecipitationIn,Events,Conditions,WindDirDegrees,DateUTC
12:53 AM,77.0,71.1,82,29.96,10.0,Calm,Calm,-,N/A,,Scattered Clouds,0,2013-07-13 04:53:00
1:53 AM,78.1,72.0,81,29.94,10.0,Calm,Calm,-,N/A,,Scattered Clouds,0,2013-07-13 05:53:00
2:53 AM,78.1,70.0,76,29.94,10.0,SSE,4.6,-,N/A,,Scattered Clouds,160,2013-07-13 06:53:00
3:53 AM,78.1,71.1,79,29.93,10.0,Calm,Calm,-,N/A,,Scattered Clouds,0,2013-07-13 07:53:00
4:53 AM,78.1,71.1,79,29.93,10.0,Calm,Calm,-,N/A,,Partly Cloudy,0,2013-07-13 08:53:00
5:53 AM,78.1,70.0,76,29.92,10.0,WSW,3.5,-,N/A,,Partly Cloudy,250,2013-07-13 09:53:00
6:20 AM,78.8,69.8,74,29.93,10.0,Calm,Calm,-,N/A,Thunderstorm,Thunderstorm,0,2013-07-13 10:20:00
6:53 AM,78.1,70.0,76,29.94,10.0,Calm,Calm,-,N/A,Thunderstorm,Thunderstorm,0,2013-07-13 10:53:00
7:42 AM,78.8,71.6,78,29.96,10.0,ESE,4.6,-,N/A,,Mostly Cloudy,110,2013-07-13 11:42:00
7:53 AM,78.1,71.1,79,29.96,10.0,ESE,3.5,-,N/A,,Mostly Cloudy,120,2013-07-13 11:53:00
8:53 AM,79.0,71.1,77,29.97,10.0,SE,4.6,-,N/A,,Mostly Cloudy,140,2013-07-13 12:53:00
9:53 AM,81.0,72.0,74,29.98,10.0,South,4.6,-,N/A,,Mostly Cloudy,180,2013-07-13 13:53:00
10:53 AM,86.0,73.0,65,29.98,10.0,Variable,4.6,-,N/A,,Mostly Cloudy,0,2013-07-13 14:53:00
11:38 AM,84.2,71.6,66,29.99,10.0,East,10.4,-,N/A,,Mostly Cloudy,100,2013-07-13 15:38:00
11:53 AM,84.9,73.0,67,29.98,10.0,East,11.5,-,N/A,,Mostly Cloudy,80,2013-07-13 15:53:00
12:35 PM,82.4,73.4,74,29.99,7.0,East,9.2,-,0.06,Rain-Thunderstorm,Light Thunderstorms and Rain,100,2013-07-13 16:35:00
12:53 PM,82.9,73.9,74,29.97,7.0,ESE,15.0,-,0.06,Thunderstorm,Thunderstorm,110,2013-07-13 16:53:00
1:25 PM,80.6,73.4,79,30.00,2.0,South,12.7,-,0.01,Rain-Thunderstorm,Heavy Thunderstorms and Rain,180,2013-07-13 17:25:00
1:45 PM,77.0,71.6,83,30.01,3.0,Calm,Calm,-,0.46,Rain-Thunderstorm,Thunderstorms and Rain,0,2013-07-13 17:45:00
1:53 PM,78.1,71.1,79,30.01,4.0,NE,4.6,-,0.47,Rain-Thunderstorm,Thunderstorms and Rain,40,2013-07-13 17:53:00
2:53 PM,78.1,71.1,79,29.99,7.0,SSE,8.1,-,0.02,Thunderstorm,Thunderstorm,160,2013-07-13 18:53:00
3:32 PM,78.8,71.6,78,29.99,10.0,SSW,5.8,-,0.01,Rain,Light Rain,210,2013-07-13 19:32:00
3:53 PM,78.1,72.0,81,30.00,10.0,South,3.5,-,0.02,Rain,Light Rain,180,2013-07-13 19:53:00
4:53 PM,78.1,72.0,81,30.00,10.0,WSW,4.6,-,0.04,Rain,Light Rain,240,2013-07-13 20:53:00
5:27 PM,77.0,71.6,83,29.98,10.0,WSW,8.1,-,0.04,Rain-Thunderstorm,Light Thunderstorms and Rain,240,2013-07-13 21:27:00
5:53 PM,75.9,70.0,82,29.98,10.0,SW,6.9,-,0.12,Rain-Thunderstorm,Light Thunderstorms and Rain,220,2013-07-13 21:53:00
6:22 PM,75.2,71.6,89,29.98,10.0,South,4.6,-,0.08,Rain,Light Rain,180,2013-07-13 22:22:00
6:53 PM,75.9,70.0,82,29.97,10.0,SSW,4.6,-,0.13,Rain,Light Rain,210,2013-07-13 22:53:00
7:53 PM,75.0,70.0,84,29.99,10.0,South,5.8,-,0.04,Rain,Light Rain,180,2013-07-13 23:53:00
8:53 PM,75.0,70.0,84,30.03,10.0,SSW,4.6,-,0.12,Rain,Light Rain,210,2013-07-14 00:53:00
9:53 PM,75.0,70.0,84,30.00,10.0,Calm,Calm,-,0.05,Rain,Light Rain,0,2013-07-14 01:53:00
10:53 PM,75.9,70.0,82,30.03,10.0,SSE,6.9,-,0.01,Rain,Light Rain,160,2013-07-14 02:53:00
11:53 PM,75.9,70.0,82,30.01,10.0,SE,4.6,-,0.00,,Mostly Cloudy,130,2013-07-14 03:53:00